Zurück zum Katalog

STARLINK-33903

AktivKommunikationVLEO
NORAD 63828·PAYLOAD·🇺🇸 United States

Gestartet May 4, 2025 von Cape Canaveral Space Force Station

Loading…

Nächste Überflüge (nächste 24 Stunden)

TLE

AktuellSource: CelesTrak SupGP

Epoche: Sep 15, 2026, 03:36 UTC

1 63828C 25092AA  26258.15048611  .00045966  00000+0  16654-2 0  2585
2 63828  43.0022 182.5672 0001268 270.3719 326.4396 15.27546403    18

Verfolge STARLINK-33903 in Echtzeit mit AllMySat

Download on the App Store